This is the latest recevied weather packets stored in our database for station/object K8RLH. If no packets are shown the sender has not sent any weather packets the latest 10 day(s).
| Time | Temp. | Humidity | Pressure | Rain* | Wind** | Luminosity | Snow |
|---|---|---|---|---|---|---|---|
| 1777570605 | 21.67° C | 62% | 1012.7 hPa | 0 mm | - | 189 W/m² | - |
| 1777570303 | 21.67° C | 61% | 1012.6 hPa | 0 mm | - | 190 W/m² | - |
| 1777569998 | 21.67° C | 64% | 1012.6 hPa | 0 mm | - | 183 W/m² | - |
| 1777569694 | 21.67° C | 64% | 1012.6 hPa | 0 mm | - | 200 W/m² | - |
| 1777569390 | 21.11° C | 64% | 1012.7 hPa | 0 mm | - | 199 W/m² | - |
| 1777569087 | 21.11° C | 64% | 1013.1 hPa | 0 mm | - | 199 W/m² | - |
| 1777568783 | 21.11° C | 67% | 1013 hPa | 0 mm | - | 185 W/m² | - |
| 1777568481 | 21.11° C | 66% | 1012.9 hPa | 0 mm | - | 194 W/m² | - |
| 1777568177 | 20.56° C | 66% | 1012.9 hPa | 0 mm | - | 217 W/m² | - |
| 1777567875 | 20.56° C | 68% | 1013.1 hPa | 0 mm | - | 192 W/m² | - |
| 1777567570 | 20.56° C | 67% | 1013.2 hPa | 0 mm | - | 225 W/m² | - |
| 1777567268 | 20.56° C | 71% | 1013.3 hPa | 0 mm | - | 223 W/m² | - |
| 1777566967 | 20.56° C | 74% | 1013.2 hPa | 0 mm | - | 227 W/m² | - |
| 1777566664 | 20.56° C | 69% | 1013.3 hPa | 0 mm | - | 211 W/m² | - |
| 1777566361 | 20° C | 73% | 1013.4 hPa | 0 mm | - | 211 W/m² | - |
| 1777566059 | 19.44° C | 78% | 1013.3 hPa | 0 mm | - | 224 W/m² | - |
| 1777565753 | 19.44° C | 78% | 1013.3 hPa | 0 mm | - | 209 W/m² | - |
| 1777565450 | 19.44° C | 79% | 1013.4 hPa | 0 mm | - | 179 W/m² | - |
| 1777565146 | 19.44° C | 77% | 1013.4 hPa | 0 mm | - | 167 W/m² | - |
| 1777564843 | 19.44° C | 77% | 1013.3 hPa | 0 mm | - | 146 W/m² | - |
| 1777564538 | 19.44° C | 78% | 1013.5 hPa | 0 mm | - | 174 W/m² | - |
| 1777564234 | 20° C | 76% | 1013.4 hPa | 0 mm | - | 174 W/m² | - |
| 1777563930 | 19.44° C | 78% | 1013.7 hPa | 0 mm | - | 192 W/m² | - |
| 1777563626 | 19.44° C | 82% | 1013.6 hPa | 0 mm | - | 202 W/m² | - |
| 1777563326 | 18.89° C | 82% | 1013.5 hPa | 0 mm | - | 230 W/m² | - |
* Rain latest hour (hover to see other rain measurements)
** Current wind speed in m/s (hover to see current wind gust speed)